Overview Statistics Trail Chart Weather Telemetry Raw packets
 

This is the latest recevied weather packets stored in our database for station/object KO6LQK. If no packets are shown the sender has not sent any weather packets the latest 10 day(s).

<< 8 9 10 11 12 13 14 >>
Time Temp. Humidity Pressure Rain* Wind** Luminosity Snow
1788387517 28.33° C 15% 1021.6 hPa 0 mm - 767 W/m² -
1788387216 28.33° C 14% 1021.7 hPa 0 mm - 776 W/m² -
1788386911 28.33° C 15% 1021.8 hPa 0 mm - 785 W/m² -
1788386611 28.33° C 15% 1021.4 hPa 0 mm - 796 W/m² -
1788386306 28.89° C 15% 1021.5 hPa 0 mm - 811 W/m² -
1788386007 28.33° C 15% 1021.7 hPa 0 mm - 819 W/m² -
1788385703 28.33° C 14% 1021.6 hPa 0 mm - 833 W/m² -
1788385401 28.33° C 14% 1021.6 hPa 0 mm - 838 W/m² -
1788385097 28.33° C 13% 1021.6 hPa 0 mm - 851 W/m² -
1788384793 28.33° C 14% 1021.8 hPa 0 mm - 860 W/m² -
1788384491 28.33° C 15% 1021.8 hPa 0 mm - 868 W/m² -
1788384203 28.33° C 14% 1021.8 hPa 0 mm - 881 W/m² -
1788383884 28.33° C 14% 1022 hPa 0 mm - 887 W/m² -
1788383580 28.33° C 16% 1021.9 hPa 0 mm - 898 W/m² -
1788383280 28.33° C 15% 1022.1 hPa 0 mm - 904 W/m² -
1788382975 28.33° C 17% 1022.2 hPa 0 mm - 911 W/m² -
1788382672 28.33° C 17% 1022.1 hPa 0 mm - 916 W/m² -
1788382368 27.78° C 18% 1022 hPa 0 mm - 921 W/m² -
1788382063 27.78° C 16% 1021.9 hPa 0 mm - 923 W/m² -
1788381759 27.78° C 18% 1022 hPa 0 mm - 927 W/m² -
1788381458 27.78° C 17% 1022.1 hPa 0 mm - 929 W/m² -
1788381153 27.78° C 17% 1022.2 hPa 0 mm - 930 W/m² -
1788380848 27.78° C 17% 1022.4 hPa 0 mm - 930 W/m² -
1788380545 27.78° C 17% 1022.2 hPa 0 mm - 932 W/m² -
1788380241 28.33° C 18% 1022.1 hPa 0 mm - 931 W/m² -

* Rain latest hour (hover to see other rain measurements)
** Current wind speed in m/s (hover to see current wind gust speed)